#timestamp,LO_Frequency,Hit,StdDev 
1547956815.3,286047004.0,N
1547956835.2,286047002.6,N
1547956855.9,286047002.5,N
1547956875.7,286047000.7,N
1547956895.6,286047001.1,N
1547956915.4,286047001.0,N
1547956935.2,286046998.6,N
1547956955.1,286047000.6,N
1547956956.0,286047000.6,N
1547956975.8,286046999.5,N
1547956995.7,286046996.6,N
1547957015.5,286046999.3,N
1547957035.3,286046999.3,N
1547957055.2,286046996.8,N
1547957075.0,286047000.3,N
1547957075.9,286047000.3,N
1547957095.7,286047000.0,N
1547957115.6,286047001.8,N
1547957135.4,286047004.9,N
1547957155.3,286047005.0,N
1547957175.1,286047004.8,N
1547957176.0,286047004.8,N
1547957195.8,286047006.4,N
1547957215.7,286047005.1,N
1547957235.5,286047004.8,N
1547957255.3,286047005.7,N
1547957275.2,286047003.7,N
1547957295.0,286047003.8,N
1547957295.9,286047003.8,N
1547957315.8,286047003.8,N
1547957335.6,286047001.6,N
1547957355.4,286047002.6,N
1547957375.3,286047000.7,N
1547957395.1,286046998.4,N
1547957415.8,286046999.6,N
1547957435.7,286046997.2,N
1547957455.5,286046998.4,N
1547957475.4,286046996.5,N
1547957495.2,286046997.4,N
1547957515.0,286046997.5,N
1547957515.9,286046997.5,N
1547957535.8,286046998.0,N
1547957555.6,286046994.9,N
1547957575.4,286046993.8,N
1547957595.3,286046991.7,N
1547957615.1,286046993.1,N
1547957635.9,286046993.1,N
1547957655.7,286046993.1,N
1547957675.5,286046993.2,N
1547957695.4,286046993.2,N
1547957715.2,286046994.4,N
1547957735.0,286046994.1,N
1547957735.9,286046994.1,N
1547957755.8,286046992.4,N
1547957775.6,286046992.7,N
1547957795.5,286046990.2,N
1547957815.3,286046990.9,N
1547957835.1,286046990.1,N
1547957855.9,286046994.6,N
1547957875.7,286046994.6,N
1547957895.5,286046994.3,N
1547957915.4,286046994.0,N
1547957935.2,286046992.3,N
1547957955.1,286046991.7,Y
1547957956.0,286046991.7,P
1547957975.8,286047000.8,N
1547957995.6,286047001.6,N
1547958015.5,286047001.9,N
1547958035.3,286047003.4,N
1547958055.1,286047008.0,N
1547958075.9,286047013.1,N
1547958095.7,286047011.8,N
1547958115.6,286047010.2,N
1547958135.4,286047007.8,N
1547958155.2,286047006.5,N
1547958175.1,286047007.2,N
1547958176.0,286047007.2,N
1547958195.8,286047005.9,N
1547958215.6,286047001.3,N
1547958235.5,286047003.9,N
1547958255.3,286047003.9,N
1547958275.2,286047003.5,N
1547958295.9,286047002.1,N
1547958315.7,286046999.9,N
1547958335.6,286047000.9,N
1547958355.4,286047000.1,N
1547958375.2,286047004.4,N
1547958395.1,286047004.4,N
1547958396.0,286047004.4,N
1547958415.8,286047001.8,N
1547958435.7,286047001.0,N
1547958455.5,286046998.6,N
1547958475.3,286046999.0,N
1547958495.2,286047001.0,N
1547958515.9,286047002.8,N
1547958535.7,286046999.7,N
1547958555.6,286047005.8,N
1547958575.4,286047005.2,N
1547958595.2,286047005.4,N
1547958615.1,286047003.0,N
1547958616.0,286047003.0,N
1547958635.8,286047003.1,N
1547958655.7,286047003.5,N
1547958675.5,286047001.5,N
1547958695.3,286047003.2,N
1547958715.2,286047004.4,N
1547958735.0,286047001.3,N
1547958735.9,286047001.3,N
1547958755.7,286047004.2,N
1547958775.6,286047005.4,N
1547958795.4,286047009.2,Y
1547958815.3,286047008.9,P
1547958835.1,286047006.1,N
1547958836.0,286047006.1,N
1547958855.8,286047005.7,N
1547958875.7,286047004.8,N
1547958895.5,286047005.7,Y
1547958915.4,286046996.8,P
1547958935.2,286046998.9,N
1547958955.0,286047001.1,N
1547958955.9,286047001.1,N
1547958975.8,286047000.6,N
1547958995.6,286046998.9,N
1547959015.4,286046997.2,N
1547959035.3,286046996.2,N
1547959055.1,286046993.3,N
1547959075.9,286046994.7,N
1547959095.7,286046992.0,N
1547959115.5,286046992.6,N
1547959135.4,286046993.2,N
1547959155.2,286046990.8,N
1547959175.0,286046990.8,N
1547959175.9,286046990.8,N
1547959195.8,286046990.5,N
1547959215.6,286046991.0,N
1547959235.4,286046990.4,N
1547959255.3,286046988.6,N
1547959275.1,286046990.9,N
1547959295.9,286046992.6,N
1547959315.7,286046990.2,N
1547959335.5,286046990.5,N
1547959355.4,286046991.6,N
1547959375.2,286046986.3,Y
1547959395.1,286046996.2,P
1547959396.0,286046996.2,P
1547959415.8,286046993.7,P
1547959435.6,286046995.7,Y
1547959455.5,286047002.5,P
1547959475.3,286047002.4,N
1547959495.1,286047000.3,N
1547959515.9,286047000.3,N
1547959535.7,286046999.7,N
1547959555.6,286047000.3,N
1547959575.4,286047000.4,N
1547959595.2,286047001.0,N
1547959615.1,286046999.9,N
1547959616.0,286046999.9,N
1547959635.8,286047002.6,N
1547959655.6,286047000.1,N
1547959675.5,286047002.3,N
1547959695.3,286047001.5,N
1547959715.1,286047002.6,N
1547959735.9,286047002.9,N
1547959755.7,286047003.3,N
1547959775.6,286047003.0,N
1547959795.4,286047002.9,N
1547959815.2,286047004.7,N
1547959835.1,286047007.2,Y
1547959836.0,286047007.2,P
1547959855.8,286047003.0,N
1547959875.7,286047004.0,N
1547959895.5,286047003.9,N
1547959915.3,286047001.3,N
1547959935.2,286047003.4,N
1547959955.9,286047001.7,N
1547959975.7,286047001.5,N
1547959995.6,286047003.6,N
1547960015.4,286047003.9,N
1547960035.2,286047004.4,N
1547960055.1,286047004.4,N
1547960056.0,286047004.4,N
1547960075.8,286047002.0,N
1547960095.7,286047001.2,N
1547960115.5,286046998.8,N
1547960135.3,286046997.0,N
1547960155.2,286046995.7,N
1547960175.9,286046996.4,N
1547960195.7,286046993.7,N
1547960215.6,286046995.4,N
1547960235.4,286046995.1,N
1547960255.2,286046996.5,N
1547960275.1,286046999.1,N
1547960276.0,286046999.1,N
1547960295.8,286047001.0,N
1547960315.7,286046999.9,N
1547960335.5,286047000.1,N
1547960355.3,286047002.0,N
1547960375.2,286047003.2,N
1547960395.0,286047002.9,N
1547960395.9,286047002.9,N
